Change the Weather History Date:

Sunday, October 14, 2012

  Actual Average Record
Temperature  
Mean Temperature 20 °F -  
Max Temperature 28 °F 23 °F 39 °F (2007)
Min Temperature 10 °F 12 °F -13 °F (1996)
Degree Days  
Heating Degree Days 45    
Moisture  
Dew Point 15 °F    
Average Humidity 79    
Maximum Humidity 93    
Minimum Humidity 51    
Precipitation  
Precipitation 0.00 in - - ()
Sea Level Pressure  
Sea Level Pressure 29.57 in    
Wind  
Wind Speed 4 mph (NW)    
Max Wind Speed 17 mph    
Max Gust Speed 17 mph    
Visibility 9 miles    
Events      
Averages and records for this station are not official NWS values.
T = Trace of Precipitation, MM = Missing Value Source: NWS Daily Summary

Daily Weather History Graph

Daily Weather History Graph

Search for Another Location

Airport or City:

Trip Planner

Search our weather history database for the weather conditions in past years. The results will help you decide how hot, cold, wet, or windy it might be!

Date:

Astronomy

Oct. 14, 2012 Rise Set
Actual Time 9:53 AM AKDT 7:20 PM AKDT
Civil Twilight 8:57 AM AKDT 8:16 PM AKDT
Nautical Twilight 7:53 AM AKDT 9:19 PM AKDT
Astronomical Twilight 6:48 AM AKDT 10:24 PM AKDT
Moon 9:08 AM AKDT (10/14) 6:34 PM AKDT (10/14)
Length of Visible Light 11h 19m
Length of Day
9h 27m
Waning Crescent, 1% of the Moon is Illuminated
Oct 14
Waning Crescent
Oct 15
New
Oct 21
First Quarter
Oct 29
Full
Nov 6
Last Quarter

Hourly Weather History & Observations

Time (AKDT) Temp. Windchill Dew Point Humidity Pressure Visibility Wind Dir Wind Speed Gust Speed Precip Events Conditions
12:16 AM 19.4 °F - 15.8 °F 86% 29.64 in 10.0 mi Calm Calm - N/A   Scattered Clouds
12:36 AM 21.2 °F - 17.6 °F 86% 29.64 in 10.0 mi Calm Calm - N/A   Overcast
12:56 AM 21.2 °F - 17.6 °F 86% 29.63 in 10.0 mi Calm Calm - N/A   Overcast
1:16 AM 21.2 °F 13.6 °F 17.6 °F 86% 29.63 in 10.0 mi NW 5.8 mph - N/A   Mostly Cloudy
1:36 AM 19.4 °F 11.5 °F 15.8 °F 86% 29.63 in 10.0 mi NW 5.8 mph - N/A   Mostly Cloudy
1:56 AM 19.4 °F 12.8 °F 15.8 °F 86% 29.62 in 10.0 mi NNW 4.6 mph - N/A   Scattered Clouds
2:16 AM 21.2 °F - 15.8 °F 80% 29.62 in 10.0 mi Calm Calm - N/A   Mostly Cloudy
2:36 AM 19.4 °F 12.8 °F 15.8 °F 86% 29.61 in 10.0 mi WNW 4.6 mph - N/A   Mostly Cloudy
2:56 AM 19.4 °F 14.3 °F 15.8 °F 86% 29.61 in 10.0 mi WNW 3.5 mph - N/A   Mostly Cloudy
3:16 AM 17.6 °F - 14.0 °F 86% 29.61 in 10.0 mi Calm Calm - N/A   Partly Cloudy
3:36 AM 19.4 °F 10.4 °F 14.0 °F 80% 29.61 in 10.0 mi WNW 6.9 mph - N/A   Scattered Clouds
3:56 AM 19.4 °F 9.5 °F 15.8 °F 86% 29.60 in 10.0 mi WNW 8.1 mph - N/A   Scattered Clouds
4:16 AM 19.4 °F 10.4 °F 15.8 °F 86% 29.60 in 10.0 mi NW 6.9 mph - N/A   Mostly Cloudy
4:36 AM 19.4 °F 11.5 °F 17.6 °F 93% 29.59 in 10.0 mi NNW 5.8 mph - N/A   Mostly Cloudy
4:56 AM 19.4 °F 11.5 °F 15.8 °F 86% 29.59 in 10.0 mi NW 5.8 mph - N/A   Overcast
5:16 AM 17.6 °F 12.3 °F 15.8 °F 93% 29.58 in 10.0 mi NW 3.5 mph - N/A   Overcast
5:36 AM 19.4 °F 12.8 °F 15.8 °F 86% 29.58 in 10.0 mi NW 4.6 mph - N/A   Overcast
5:56 AM 19.4 °F 11.5 °F 17.6 °F 93% 29.58 in 10.0 mi NNW 5.8 mph - N/A   Mostly Cloudy
6:16 AM 21.2 °F 14.9 °F 17.6 °F 86% 29.57 in 10.0 mi NW 4.6 mph - N/A   Mostly Cloudy
6:36 AM 19.4 °F - 15.8 °F 86% 29.57 in 10.0 mi Calm Calm - N/A   Overcast
6:56 AM 19.4 °F - 15.8 °F 86% 29.57 in 10.0 mi Calm Calm - N/A   Overcast
7:16 AM 19.4 °F - 15.8 °F 86% 29.56 in 10.0 mi Calm Calm - N/A   Overcast
7:36 AM 19.4 °F - 15.8 °F 86% 29.56 in 10.0 mi Calm Calm - N/A   Overcast
7:56 AM 19.4 °F - 15.8 °F 86% 29.55 in 10.0 mi Calm Calm - N/A   Mostly Cloudy
8:16 AM 19.4 °F 14.3 °F 17.6 °F 93% 29.55 in 10.0 mi SSW 3.5 mph - N/A   Mostly Cloudy
8:36 AM 19.4 °F 14.3 °F 17.6 °F 93% 29.55 in 10.0 mi SSW 3.5 mph - N/A   Overcast
8:56 AM 19.4 °F - 17.6 °F 93% 29.54 in 10.0 mi Calm Calm - N/A   Overcast
9:16 AM 19.4 °F - 17.6 °F 93% 29.54 in 3.0 mi Calm Calm - N/A   Overcast
9:36 AM 19.4 °F 14.3 °F 17.6 °F 93% 29.54 in 1.8 mi SSW 3.5 mph - N/A   Overcast
9:56 AM 21.2 °F - 17.6 °F 86% 29.54 in 2.5 mi Calm Calm - N/A   Overcast
10:16 AM 21.2 °F - 17.6 °F 86% 29.54 in 1.0 mi Calm Calm - N/A   Overcast
10:36 AM 21.2 °F - 19.4 °F 93% 29.54 in 1.0 mi Calm Calm - N/A   Overcast
10:56 AM 21.2 °F 14.9 °F 19.4 °F 93% 29.54 in 2.0 mi NNE 4.6 mph - N/A   Overcast
11:16 AM 21.2 °F 14.9 °F 19.4 °F 93% 29.55 in 2.5 mi North 4.6 mph - N/A   Overcast
11:36 AM 21.2 °F 14.9 °F 17.6 °F 86% 29.55 in 10.0 mi North 4.6 mph - N/A   Mostly Cloudy
11:56 AM 21.2 °F 16.4 °F 17.6 °F 86% 29.55 in 10.0 mi North 3.5 mph - N/A   Scattered Clouds
12:16 PM 21.2 °F 14.9 °F 17.6 °F 86% 29.55 in 10.0 mi North 4.6 mph - N/A   Mostly Cloudy
12:36 PM 23.0 °F 15.8 °F 19.4 °F 86% 29.55 in 10.0 mi North 5.8 mph - N/A   Overcast
1:16 PM 24.8 °F 20.5 °F 19.4 °F 80% 29.55 in 10.0 mi North 3.5 mph - N/A   Mostly Cloudy
1:36 PM 24.8 °F - 19.4 °F 80% 29.55 in 10.0 mi Calm Calm - N/A   Overcast
1:56 PM 26.6 °F 15.7 °F 19.4 °F 74% 29.55 in 10.0 mi WNW 12.7 mph - N/A   Mostly Cloudy
2:16 PM 26.6 °F 19.1 °F 19.4 °F 74% 29.56 in 10.0 mi NNW 6.9 mph - N/A   Mostly Cloudy
2:36 PM 26.6 °F 16.2 °F 19.4 °F 74% 29.56 in 10.0 mi NW 11.5 mph - N/A   Overcast
2:56 PM 26.6 °F 16.2 °F 17.6 °F 69% 29.56 in 10.0 mi WNW 11.5 mph - N/A   Mostly Cloudy
3:16 PM 26.6 °F 16.2 °F 15.8 °F 64% 29.56 in 10.0 mi NW 11.5 mph - N/A   Partly Cloudy
3:36 PM 28.4 °F 17.5 °F 14.0 °F 55% 29.56 in 10.0 mi WNW 13.8 mph - N/A   Scattered Clouds
3:56 PM 28.4 °F 16.6 °F 12.2 °F 51% 29.56 in 10.0 mi NW 16.1 mph - N/A   Overcast
4:16 PM 26.6 °F 13.8 °F 12.2 °F 55% 29.56 in 10.0 mi NW 17.3 mph - N/A   Mostly Cloudy
4:36 PM 28.4 °F 17.0 °F 12.2 °F 51% 29.57 in 10.0 mi NW 15.0 mph - N/A   Clear
4:56 PM 28.4 °F 17.5 °F 12.2 °F 51% 29.56 in 10.0 mi NW 13.8 mph - N/A   Clear
5:16 PM 26.6 °F 16.2 °F 10.4 °F 51% 29.57 in 10.0 mi NW 11.5 mph - N/A   Clear
5:36 PM 26.6 °F 16.8 °F 10.4 °F 51% 29.57 in 10.0 mi NW 10.4 mph - N/A   Clear
5:56 PM 26.6 °F 17.5 °F 10.4 °F 51% 29.58 in 10.0 mi NW 9.2 mph - N/A   Clear
6:16 PM 26.6 °F 18.2 °F 10.4 °F 51% 29.58 in 10.0 mi NW 8.1 mph - N/A   Clear
6:36 PM 24.8 °F 16.1 °F 10.4 °F 54% 29.58 in 10.0 mi NW 8.1 mph - N/A   Clear
6:56 PM 24.8 °F 16.1 °F 12.2 °F 59% 29.58 in 10.0 mi NW 8.1 mph - N/A   Clear
7:16 PM 23.0 °F 10.6 °F 12.2 °F 63% 29.58 in 10.0 mi North 13.8 mph 17.3 mph N/A   Clear
7:36 PM 21.2 °F 14.9 °F 12.2 °F 68% 29.58 in 10.0 mi NNW 4.6 mph - N/A   Clear
7:56 PM 19.4 °F 11.5 °F 12.2 °F 74% 29.58 in 10.0 mi NW 5.8 mph - N/A   Clear
8:16 PM 17.6 °F 7.3 °F 12.2 °F 79% 29.58 in 10.0 mi NW 8.1 mph - N/A   Clear
8:36 PM 19.4 °F 6.0 °F 14.0 °F 80% 29.58 in 10.0 mi WNW 13.8 mph - N/A   Clear
8:56 PM 17.6 °F 5.0 °F 12.2 °F 79% 29.58 in 10.0 mi WNW 11.5 mph - N/A   Clear
9:16 PM 19.4 °F 6.0 °F 12.2 °F 74% 29.58 in 10.0 mi WNW 13.8 mph - N/A   Clear
9:36 PM 17.6 °F 5.7 °F 10.4 °F 73% 29.57 in 10.0 mi NW 10.4 mph - N/A   Clear
9:56 PM 17.6 °F 9.3 °F 10.4 °F 73% 29.57 in 10.0 mi North 5.8 mph - N/A   Clear
10:16 PM 15.8 °F - 10.4 °F 79% 29.57 in 10.0 mi Calm Calm - N/A   Clear
10:36 PM 15.8 °F 7.2 °F 10.4 °F 79% 29.57 in 10.0 mi NNW 5.8 mph - N/A   Clear
10:56 PM 14.0 °F 5.1 °F 8.6 °F 79% 29.57 in 10.0 mi NW 5.8 mph - N/A   Clear
11:16 PM 12.2 °F 2.9 °F 6.8 °F 79% 29.57 in 10.0 mi NNW 5.8 mph - N/A   Clear
11:36 PM 12.2 °F 2.9 °F 8.6 °F 85% 29.57 in 10.0 mi North 5.8 mph - N/A   Partly Cloudy
11:56 PM 10.4 °F 4.0 °F 6.8 °F 85% 29.58 in 10.0 mi WSW 3.5 mph - N/A   Mostly Cloudy